Time,TemperatureF,DewpointF,PressureIn,WindDirection,WindDirectionDegrees,WindSpeedMPH,WindSpeedGustMPH,Humidity,HourlyPrecipIn,Conditions,Clouds,dailyrainin,SoftwareType,DateUTC
2013-01-23 00:02:00,24.0,15.0,30.32,NW,315,3.0,7.0,67,0.00,,,-99.99,,2013-01-23 07:02:00,
2013-01-23 00:22:00,24.0,13.0,30.32,North,360,0.0,2.0,61,0.00,,,-99.99,,2013-01-23 07:22:00,
2013-01-23 00:33:00,24.0,14.0,30.31,SE,135,0.0,2.0,66,0.00,,,-99.99,,2013-01-23 07:33:00,
2013-01-23 00:42:00,24.0,14.0,30.31,SE,135,0.0,2.0,66,0.00,,,-99.99,,2013-01-23 07:42:00,
2013-01-23 00:52:00,22.0,14.0,30.31,East,90,1.0,4.0,70,0.00,,,-99.99,,2013-01-23 07:52:00,
2013-01-23 01:02:00,21.0,13.0,30.32,East,90,2.0,4.0,71,0.00,,,-99.99,,2013-01-23 08:02:00,
2013-01-23 01:11:00,21.0,13.0,30.32,East,90,2.0,4.0,71,0.00,,,-99.99,,2013-01-23 08:11:00,
2013-01-23 01:22:00,24.0,16.0,30.32,North,360,2.0,4.0,71,0.00,,,-99.99,,2013-01-23 08:22:00,
2013-01-23 01:32:00,25.0,13.0,30.32,North,360,1.0,2.0,61,0.00,,,-99.99,,2013-01-23 08:32:00,
2013-01-23 01:42:00,25.0,13.0,30.32,North,360,1.0,2.0,61,0.00,,,-99.99,,2013-01-23 08:42:00,
2013-01-23 01:52:00,21.0,11.0,30.32,East,90,1.0,3.0,65,0.00,,,-99.99,,2013-01-23 08:52:00,
2013-01-23 02:02:00,19.0,12.0,30.31,East,90,3.0,5.0,74,0.00,,,-99.99,,2013-01-23 09:02:00,
2013-01-23 02:12:00,19.0,12.0,30.31,East,90,3.0,5.0,74,0.00,,,-99.99,,2013-01-23 09:12:00,
2013-01-23 02:22:00,21.0,13.0,30.32,SE,135,1.0,4.0,70,0.00,,,-99.99,,2013-01-23 09:22:00,
2013-01-23 02:32:00,22.0,12.0,30.32,North,360,0.0,1.0,64,0.00,,,-99.99,,2013-01-23 09:32:00,
2013-01-23 02:42:00,22.0,12.0,30.32,North,360,0.0,1.0,64,0.00,,,-99.99,,2013-01-23 09:42:00,
2013-01-23 02:52:00,22.0,12.0,30.32,North,360,0.0,1.0,64,0.00,,,-99.99,,2013-01-23 09:52:00,
2013-01-23 03:02:00,22.0,12.0,30.32,North,360,0.0,1.0,64,0.00,,,-99.99,,2013-01-23 10:02:00,
2013-01-23 03:12:00,22.0,12.0,30.32,North,360,0.0,1.0,64,0.00,,,-99.99,,2013-01-23 10:12:00,
2013-01-23 03:33:00,22.0,11.0,30.32,North,360,2.0,4.0,61,0.00,,,-99.99,,2013-01-23 10:33:00,
2013-01-23 03:43:00,22.0,11.0,30.32,North,360,2.0,4.0,61,0.00,,,-99.99,,2013-01-23 10:43:00,
2013-01-23 03:53:00,22.0,11.0,30.32,North,360,2.0,4.0,61,0.00,,,-99.99,,2013-01-23 10:53:00,
2013-01-23 04:02:00,22.0,11.0,30.32,South,180,2.0,5.0,62,0.00,,,-99.99,,2013-01-23 11:02:00,
2013-01-23 04:11:00,22.0,11.0,30.32,South,180,2.0,5.0,62,0.00,,,-99.99,,2013-01-23 11:11:00,
2013-01-23 04:22:00,23.0,10.0,30.32,South,180,2.0,4.0,57,0.00,,,-99.99,,2013-01-23 11:22:00,
2013-01-23 04:32:00,26.0,12.0,30.32,SW,225,0.0,2.0,54,0.00,,,-99.99,,2013-01-23 11:32:00,
2013-01-23 04:42:00,26.0,12.0,30.32,SW,225,0.0,2.0,54,0.00,,,-99.99,,2013-01-23 11:42:00,
2013-01-23 04:52:00,26.0,12.0,30.32,SW,225,0.0,2.0,54,0.00,,,-99.99,,2013-01-23 11:52:00,
2013-01-23 05:02:00,22.0,9.0,30.32,East,90,1.0,5.0,57,0.00,,,-99.99,,2013-01-23 12:02:00,
2013-01-23 05:12:00,22.0,9.0,30.32,East,90,1.0,5.0,57,0.00,,,-99.99,,2013-01-23 12:12:00,
2013-01-23 05:22:00,21.0,13.0,30.32,SE,135,2.0,4.0,70,0.00,,,-99.99,,2013-01-23 12:22:00,
2013-01-23 05:33:00,21.0,13.0,30.32,SE,135,2.0,4.0,70,0.00,,,-99.99,,2013-01-23 12:33:00,
2013-01-23 05:42:00,21.0,13.0,30.32,SE,135,2.0,4.0,70,0.00,,,-99.99,,2013-01-23 12:42:00,
2013-01-23 05:53:00,23.0,10.0,30.31,South,180,2.0,5.0,57,0.00,,,-99.99,,2013-01-23 12:53:00,
2013-01-23 06:03:00,21.0,9.0,30.31,NE,45,1.0,4.0,60,0.00,,,-99.99,,2013-01-23 13:03:00,
2013-01-23 06:12:00,21.0,9.0,30.31,NE,45,1.0,4.0,60,0.00,,,-99.99,,2013-01-23 13:12:00,
2013-01-23 06:22:00,22.0,11.0,30.32,North,360,1.0,2.0,62,0.00,,,-99.99,,2013-01-23 13:22:00,
2013-01-23 06:33:00,20.0,10.0,30.32,East,90,0.0,2.0,65,0.00,,,-99.99,,2013-01-23 13:33:00,
2013-01-23 06:42:00,20.0,10.0,30.32,East,90,0.0,2.0,65,0.00,,,-99.99,,2013-01-23 13:42:00,
2013-01-23 06:52:00,20.0,11.0,30.32,North,360,0.0,2.0,67,0.00,,,-99.99,,2013-01-23 13:52:00,
2013-01-23 07:02:00,21.0,10.0,30.32,East,90,0.0,2.0,61,0.00,,,-99.99,,2013-01-23 14:02:00,
2013-01-23 07:11:00,21.0,10.0,30.32,East,90,0.0,2.0,61,0.00,,,-99.99,,2013-01-23 14:11:00,
2013-01-23 07:23:00,21.0,10.0,30.32,East,90,0.0,2.0,61,0.00,,,-99.99,,2013-01-23 14:23:00,
2013-01-23 07:33:00,21.0,10.0,30.32,East,90,0.0,2.0,61,0.00,,,-99.99,,2013-01-23 14:33:00,
2013-01-23 07:40:00,20.0,11.0,30.32,NE,45,0.0,2.0,67,0.00,,,-99.99,,2013-01-23 14:40:00,
2013-01-23 07:42:00,21.0,10.0,30.32,East,90,0.0,2.0,61,0.00,,,-99.99,,2013-01-23 14:42:00,
2013-01-23 07:53:00,22.0,10.0,30.32,North,360,0.0,1.0,59,0.00,,,-99.99,,2013-01-23 14:53:00,
2013-01-23 08:02:00,20.0,11.0,30.32,NE,45,0.0,2.0,67,0.00,,,-99.99,,2013-01-23 15:02:00,
2013-01-23 08:12:00,20.0,11.0,30.32,NE,45,0.0,2.0,67,0.00,,,-99.99,,2013-01-23 15:12:00,
2013-01-23 08:22:00,20.0,11.0,30.32,NE,45,0.0,2.0,67,0.00,,,-99.99,,2013-01-23 15:22:00,
2013-01-23 08:33:00,20.0,11.0,30.32,NE,45,0.0,2.0,67,0.00,,,-99.99,,2013-01-23 15:33:00,
2013-01-23 08:53:00,27.0,12.0,30.32,SE,135,0.0,2.0,53,0.00,,,-99.99,,2013-01-23 15:53:00,
2013-01-23 09:03:00,28.0,12.0,30.33,NW,315,0.0,0.0,50,0.00,,,-99.99,,2013-01-23 16:03:00,
2013-01-23 09:12:00,28.0,12.0,30.33,NW,315,0.0,0.0,50,0.00,,,-99.99,,2013-01-23 16:12:00,
2013-01-23 09:22:00,28.0,12.0,30.33,NW,315,0.0,0.0,50,0.00,,,-99.99,,2013-01-23 16:22:00,
2013-01-23 09:32:00,32.0,13.0,30.34,North,360,0.0,2.0,44,0.00,,,-99.99,,2013-01-23 16:32:00,
2013-01-23 09:53:00,32.0,13.0,30.34,NE,45,1.0,2.0,44,0.00,,,-99.99,,2013-01-23 16:53:00,
2013-01-23 10:02:00,32.0,13.0,30.34,NE,45,1.0,2.0,44,0.00,,,-99.99,,2013-01-23 17:02:00,
2013-01-23 10:12:00,32.0,13.0,30.34,NE,45,1.0,2.0,44,0.00,,,-99.99,,2013-01-23 17:12:00,
2013-01-23 10:22:00,36.0,15.0,30.34,North,360,1.0,2.0,41,0.00,,,-99.99,,2013-01-23 17:22:00,
2013-01-23 10:33:00,43.0,14.0,30.35,NW,315,0.0,2.0,31,0.00,,,-99.99,,2013-01-23 17:33:00,
2013-01-23 11:03:00,44.0,18.0,30.35,NW,315,1.0,3.0,35,0.00,,,-99.99,,2013-01-23 18:03:00,
2013-01-23 11:23:00,47.0,15.0,30.35,NW,315,1.0,4.0,27,0.00,,,-99.99,,2013-01-23 18:23:00,
2013-01-23 11:32:00,47.0,15.0,30.35,NW,315,1.0,4.0,27,0.00,,,-99.99,,2013-01-23 18:32:00,
2013-01-23 11:44:00,47.0,15.0,30.35,NW,315,1.0,4.0,27,0.00,,,-99.99,,2013-01-23 18:44:00,
2013-01-23 11:53:00,44.0,15.0,30.34,NW,315,3.0,6.0,31,0.00,,,-99.99,,2013-01-23 18:53:00,
2013-01-23 12:02:00,43.0,14.0,30.34,NW,315,2.0,4.0,31,0.00,,,-99.99,,2013-01-23 19:02:00,
2013-01-23 12:12:00,43.0,14.0,30.34,NW,315,2.0,4.0,31,0.00,,,-99.99,,2013-01-23 19:12:00,
2013-01-23 12:22:00,43.0,14.0,30.34,NW,315,2.0,4.0,31,0.00,,,-99.99,,2013-01-23 19:22:00,
2013-01-23 12:32:00,52.0,19.0,30.33,East,90,0.0,3.0,27,0.00,,,-99.99,,2013-01-23 19:32:00,
2013-01-23 12:42:00,52.0,19.0,30.33,East,90,0.0,3.0,27,0.00,,,-99.99,,2013-01-23 19:42:00,
2013-01-23 12:53:00,52.0,17.0,30.33,SW,225,3.0,10.0,25,0.00,,,-99.99,,2013-01-23 19:53:00,
2013-01-23 13:02:00,53.0,18.0,30.32,SW,225,1.0,9.0,25,0.00,,,-99.99,,2013-01-23 20:02:00,
2013-01-23 13:12:00,53.0,18.0,30.32,SW,225,1.0,9.0,25,0.00,,,-99.99,,2013-01-23 20:12:00,
2013-01-23 13:22:00,53.0,17.0,30.32,South,180,7.0,13.0,24,0.00,,,-99.99,,2013-01-23 20:22:00,
2013-01-23 13:32:00,51.0,22.0,30.31,SW,225,8.0,14.0,32,0.00,,,-99.99,,2013-01-23 20:32:00,
2013-01-23 13:42:00,51.0,22.0,30.31,SW,225,8.0,14.0,32,0.00,,,-99.99,,2013-01-23 20:42:00,
2013-01-23 13:53:00,52.0,21.0,30.30,West,270,9.0,19.0,29,0.00,,,-99.99,,2013-01-23 20:53:00,
2013-01-23 14:02:00,50.0,21.0,30.30,SW,225,9.0,15.0,32,0.00,,,-99.99,,2013-01-23 21:02:00,
2013-01-23 14:12:00,50.0,21.0,30.30,SW,225,9.0,15.0,32,0.00,,,-99.99,,2013-01-23 21:12:00,
2013-01-23 14:22:00,50.0,21.0,30.30,SW,225,9.0,15.0,32,0.00,,,-99.99,,2013-01-23 21:22:00,
2013-01-23 14:30:00,51.0,19.0,30.29,SW,225,10.0,13.0,28,0.00,,,-99.99,,2013-01-23 21:30:00,
2013-01-23 14:32:00,52.0,20.0,30.30,SW,225,6.0,15.0,28,0.00,,,-99.99,,2013-01-23 21:32:00,
2013-01-23 14:42:00,52.0,20.0,30.30,SW,225,6.0,15.0,28,0.00,,,-99.99,,2013-01-23 21:42:00,
2013-01-23 14:53:00,51.0,19.0,30.29,SW,225,10.0,13.0,28,0.00,,,-99.99,,2013-01-23 21:53:00,
2013-01-23 15:02:00,51.0,19.0,30.29,SW,225,10.0,13.0,28,0.00,,,-99.99,,2013-01-23 22:02:00,
2013-01-23 15:12:00,51.0,19.0,30.29,SW,225,10.0,13.0,28,0.00,,,-99.99,,2013-01-23 22:12:00,
2013-01-23 15:22:00,51.0,19.0,30.29,SW,225,10.0,13.0,28,0.00,,,-99.99,,2013-01-23 22:22:00,
2013-01-23 15:53:00,50.0,21.0,30.29,SW,225,7.0,14.0,32,0.00,,,-99.99,,2013-01-23 22:53:00,
2013-01-23 16:02:00,50.0,23.0,30.29,SW,225,6.0,15.0,34,0.00,,,-99.99,,2013-01-23 23:02:00,
2013-01-23 16:12:00,50.0,23.0,30.29,SW,225,6.0,15.0,34,0.00,,,-99.99,,2013-01-23 23:12:00,
2013-01-23 16:22:00,51.0,22.0,30.29,SW,225,5.0,10.0,32,0.00,,,-99.99,,2013-01-23 23:22:00,
2013-01-23 16:32:00,51.0,22.0,30.29,SW,225,5.0,10.0,32,0.00,,,-99.99,,2013-01-23 23:32:00,
2013-01-23 16:42:00,51.0,22.0,30.29,SW,225,5.0,10.0,32,0.00,,,-99.99,,2013-01-23 23:42:00,
2013-01-23 16:53:00,51.0,22.0,30.29,SW,225,3.0,9.0,32,0.00,,,-99.99,,2013-01-23 23:53:00,
2013-01-23 17:02:00,50.0,23.0,30.29,SW,225,2.0,8.0,34,0.00,,,-99.99,,2013-01-24 00:02:00,
2013-01-23 17:12:00,50.0,23.0,30.29,SW,225,2.0,8.0,34,0.00,,,-99.99,,2013-01-24 00:12:00,
2013-01-23 17:22:00,51.0,21.0,30.29,SW,225,4.0,10.0,31,0.00,,,-99.99,,2013-01-24 00:22:00,
2013-01-23 17:32:00,51.0,21.0,30.29,SW,225,6.0,8.0,31,0.00,,,-99.99,,2013-01-24 00:32:00,
2013-01-23 17:42:00,51.0,21.0,30.29,SW,225,6.0,8.0,31,0.00,,,-99.99,,2013-01-24 00:42:00,
2013-01-23 17:52:00,50.0,21.0,30.29,SW,225,5.0,9.0,32,0.00,,,-99.99,,2013-01-24 00:52:00,
2013-01-23 18:02:00,49.0,20.0,30.29,South,180,3.0,6.0,32,0.00,,,-99.99,,2013-01-24 01:02:00,
2013-01-23 18:12:00,49.0,20.0,30.29,South,180,3.0,6.0,32,0.00,,,-99.99,,2013-01-24 01:12:00,
2013-01-23 18:22:00,49.0,20.0,30.29,SE,135,4.0,5.0,32,0.00,,,-99.99,,2013-01-24 01:22:00,
2013-01-23 18:32:00,49.0,20.0,30.29,SE,135,4.0,5.0,32,0.00,,,-99.99,,2013-01-24 01:32:00,
2013-01-23 18:42:00,49.0,20.0,30.29,SE,135,4.0,5.0,32,0.00,,,-99.99,,2013-01-24 01:42:00,
2013-01-23 18:52:00,47.0,20.0,30.29,SE,135,5.0,7.0,34,0.00,,,-99.99,,2013-01-24 01:52:00,
2013-01-23 19:02:00,47.0,21.0,30.28,SE,135,6.0,8.0,35,0.00,,,-99.99,,2013-01-24 02:02:00,
2013-01-23 19:12:00,47.0,21.0,30.28,SE,135,6.0,8.0,35,0.00,,,-99.99,,2013-01-24 02:12:00,
2013-01-23 19:22:00,47.0,20.0,30.29,SE,135,6.0,8.0,34,0.00,,,-99.99,,2013-01-24 02:22:00,
2013-01-23 19:32:00,47.0,20.0,30.29,SE,135,6.0,8.0,34,0.00,,,-99.99,,2013-01-24 02:32:00,
2013-01-23 19:42:00,47.0,20.0,30.29,SE,135,6.0,8.0,34,0.00,,,-99.99,,2013-01-24 02:42:00,
2013-01-23 19:52:00,47.0,20.0,30.29,SE,135,6.0,8.0,34,0.00,,,-99.99,,2013-01-24 02:52:00,
2013-01-23 20:02:00,44.0,22.0,30.29,NE,45,2.0,4.0,41,0.00,,,-99.99,,2013-01-24 03:02:00,
2013-01-23 20:12:00,44.0,22.0,30.29,NE,45,2.0,4.0,41,0.00,,,-99.99,,2013-01-24 03:12:00,
2013-01-23 20:22:00,40.0,24.0,30.30,South,180,2.0,4.0,52,0.00,,,-99.99,,2013-01-24 03:22:00,
2013-01-23 20:32:00,40.0,24.0,30.30,South,180,2.0,4.0,52,0.00,,,-99.99,,2013-01-24 03:32:00,
2013-01-23 20:42:00,40.0,24.0,30.30,South,180,2.0,4.0,52,0.00,,,-99.99,,2013-01-24 03:42:00,
2013-01-23 20:52:00,40.0,24.0,30.30,South,180,2.0,4.0,52,0.00,,,-99.99,,2013-01-24 03:52:00,
2013-01-23 21:02:00,36.0,23.0,30.30,East,90,0.0,2.0,60,0.00,,,-99.99,,2013-01-24 04:02:00,
2013-01-23 21:12:00,36.0,23.0,30.30,East,90,0.0,2.0,60,0.00,,,-99.99,,2013-01-24 04:12:00,
2013-01-23 21:22:00,36.0,23.0,30.30,East,90,0.0,2.0,60,0.00,,,-99.99,,2013-01-24 04:22:00,
2013-01-23 21:32:00,34.0,25.0,30.30,East,90,1.0,3.0,69,0.00,,,-99.99,,2013-01-24 04:32:00,
2013-01-23 21:42:00,34.0,25.0,30.30,East,90,1.0,3.0,69,0.00,,,-99.99,,2013-01-24 04:42:00,
2013-01-23 21:53:00,34.0,25.0,30.30,East,90,1.0,3.0,69,0.00,,,-99.99,,2013-01-24 04:53:00,
2013-01-23 22:03:00,35.0,26.0,30.29,East,90,0.0,2.0,68,0.00,,,-99.99,,2013-01-24 05:03:00,
2013-01-23 22:12:00,35.0,26.0,30.29,East,90,0.0,2.0,68,0.00,,,-99.99,,2013-01-24 05:12:00,
2013-01-23 22:22:00,35.0,24.0,30.30,SE,135,1.0,2.0,65,0.00,,,-99.99,,2013-01-24 05:22:00,
2013-01-23 22:32:00,36.0,26.0,30.31,East,90,2.0,4.0,66,0.00,,,-99.99,,2013-01-24 05:32:00,
2013-01-23 22:42:00,36.0,26.0,30.31,East,90,2.0,4.0,66,0.00,,,-99.99,,2013-01-24 05:42:00,
2013-01-23 22:52:00,36.0,25.0,30.31,East,90,0.0,2.0,64,0.00,,,-99.99,,2013-01-24 05:52:00,
2013-01-23 23:02:00,36.0,25.0,30.31,East,90,0.0,2.0,64,0.00,,,-99.99,,2013-01-24 06:02:00,
2013-01-23 23:12:00,36.0,25.0,30.31,East,90,0.0,2.0,64,0.00,,,-99.99,,2013-01-24 06:12:00,
2013-01-23 23:22:00,35.0,24.0,30.31,South,180,0.0,1.0,64,0.00,,,-99.99,,2013-01-24 06:22:00,
2013-01-23 23:32:00,36.0,25.0,30.31,NE,45,0.0,2.0,63,0.00,,,-99.99,,2013-01-24 06:32:00,
2013-01-23 23:42:00,36.0,25.0,30.31,NE,45,0.0,2.0,63,0.00,,,-99.99,,2013-01-24 06:42:00,
2013-01-23 23:52:00,36.0,25.0,30.31,NE,45,0.0,2.0,63,0.00,,,-99.99,,2013-01-24 06:52:00,